Flag for Germany

Past Weather in Chemnitz, Saxony, Germany — Yesterday and Last 2 Weeks

Now
70 °F

Sunny.


Feels Like: 70 °F
Forecast: 80 / 65 °F
Wind: 3 mph from Northeast

Location: Dresden-Klotzsche
Current Time: Aug 13, 2020 at 8:37:11 am
Latest Report: Aug 13, 2020 at 7:50 am
Visibility: 10 mi
Pressure29.98 "Hg
Humidity: 73%
Dew Point: 61 °F
Location of ChemnitzLocation

Past Weather in Chemnitz — Graph

°F

Chemnitz Temperature Yesterday

Maximum temperature yesterday: 88 °F (at 2:50 pm)
Minimum temperature yesterday: 63 °F (at 6:20 am)
Average temperature yesterday: 77 °F

High & Low Weather Summary for the Past Weeks

 TemperatureHumidityPressure
High93 °F (Aug 8, 4:50 pm)100% (Aug 2, 7:50 pm)30.21 "Hg (Aug 2, 7:50 pm)
Low52 °F (Aug 5, 5:20 am)18% (Aug 1, 3:50 pm)29.83 "Hg (Aug 3, 5:50 pm)
Average72 °F59%30.05 "Hg
* Reported Jul 29 7:20 am — Aug 13 7:20 am, Chemnitz. Weather by CustomWeather, © 2020

Note: Actual official high and low records may vary slightly from our data, if they occured in-between our weather recording intervals... More about our weather records

Chemnitz Weather History for the Previous 24 Hours

Scroll right to see more
 ConditionsComfort  
Time TempWeatherWind HumidityBarometerVisibility
7:20 am
Thu, Aug 13
68 °FSunny.1 mph78%29.98 "Hg10 mi
6:50 am66 °FPassing clouds.3 mph83%29.98 "HgN/A
6:20 am66 °FPassing clouds.3 mph78%29.98 "HgN/A
5:50 am68 °FSunny.3 mph73%29.98 "Hg10 mi
5:20 am70 °FClear.7 mph69%29.98 "Hg10 mi
4:50 am70 °FClear.8 mph69%29.98 "Hg10 mi
4:20 am72 °FClear.9 mph65%29.98 "Hg10 mi
3:50 am72 °FClear.9 mph65%29.98 "Hg10 mi
3:20 am70 °FClear.8 mph69%30.01 "Hg10 mi
2:50 am72 °FClear.10 mph65%30.01 "Hg10 mi
2:20 am72 °FClear.8 mph65%30.01 "Hg10 mi
1:50 am70 °FClear.7 mph73%30.01 "Hg10 mi
1:20 am72 °FClear.6 mph69%30.01 "Hg10 mi
12:50 am72 °FClear.5 mph65%30.01 "Hg10 mi
12:20 am73 °FClear.2 mph61%30.04 "Hg10 mi
11:50 pm
Wed, Aug 12
73 °FClear.2 mph61%30.01 "Hg10 mi
11:20 pm73 °FClear.3 mph61%30.01 "Hg10 mi
10:50 pm75 °FClear.2 mph57%30.01 "Hg10 mi
10:20 pm77 °FPassing clouds.3 mph54%30.04 "HgN/A
9:20 pm79 °FClear.7 mph51%30.04 "Hg10 mi
8:50 pm81 °FClear.6 mph48%30.01 "Hg10 mi
8:20 pm81 °FSunny.7 mph48%30.04 "Hg10 mi
7:50 pm82 °FSunny.8 mph45%30.01 "Hg10 mi
7:20 pm84 °FSunny.10 mph40%30.01 "Hg10 mi
6:50 pm86 °FPassing clouds.7 mph38%30.01 "HgN/A
6:20 pm86 °FSunny.9 mph38%30.01 "Hg10 mi
5:50 pm86 °FPassing clouds.8 mph35%30.04 "HgN/A
5:20 pm86 °FPassing clouds.8 mph35%30.04 "HgN/A
4:50 pm88 °FPassing clouds.6 mph35%30.04 "HgN/A
4:20 pm86 °FPassing clouds.6 mph35%30.04 "HgN/A
3:50 pm88 °FPassing clouds.6 mph33%30.07 "HgN/A
3:20 pm88 °FPassing clouds.7 mph33%30.07 "HgN/A
2:50 pm88 °FSunny.8 mph35%30.07 "Hg10 mi
2:20 pm86 °FPassing clouds.7 mph38%30.07 "HgN/A
1:50 pm86 °FPassing clouds.9 mph38%30.07 "HgN/A
1:20 pm84 °FPassing clouds.10 mph43%30.09 "HgN/A
12:50 pm84 °FSunny.6 mph40%30.09 "Hg10 mi
12:20 pm82 °FPassing clouds.10 mph42%30.09 "HgN/A
11:50 am84 °FPassing clouds.10 mph43%30.09 "HgN/A
11:20 am82 °FPassing clouds.12 mph45%30.09 "HgN/A
10:50 am82 °FPassing clouds.12 mph45%30.09 "HgN/A
10:20 am81 °FPassing clouds.12 mph48%30.09 "HgN/A
9:50 am79 °FPassing clouds.12 mph54%30.09 "HgN/A
9:20 am77 °FPassing clouds.8 mph57%30.12 "HgN/A
8:50 am73 °FSunny.7 mph69%30.09 "Hg10 mi
8:20 am72 °FPassing clouds.6 mph69%30.09 "HgN/A
Weather by CustomWeather, © 2020

See weather overview